This is the latest recevied weather packets stored in our database for station/object K7SKM. If no packets are shown the sender has not sent any weather packets the latest 10 day(s).
| Time | Temp. | Humidity | Pressure | Rain* | Wind** | Luminosity | Snow |
|---|---|---|---|---|---|---|---|
| 1777769134 | 25.56° C | 41% | 1017.3 hPa | 0 mm | - | 312 W/m² | - |
| 1777768832 | 25.56° C | 42% | 1017.2 hPa | 0 mm | - | 317 W/m² | - |
| 1777768529 | 25.56° C | 41% | 1017.3 hPa | 0 mm | - | 324 W/m² | - |
| 1777768226 | 25.56° C | 41% | 1017.2 hPa | 0 mm | - | 331 W/m² | - |
| 1777767923 | 25.56° C | 42% | 1017.3 hPa | 0 mm | - | 337 W/m² | - |
| 1777767620 | 26.11° C | 41% | 1017.3 hPa | 0 mm | - | 345 W/m² | - |
| 1777767316 | 26.67° C | 40% | 1017.3 hPa | 0 mm | - | 350 W/m² | - |
| 1777767014 | 26.11° C | 41% | 1017.3 hPa | 0 mm | - | 350 W/m² | - |
| 1777766711 | 25.56° C | 41% | 1017.4 hPa | 0 mm | - | 353 W/m² | - |
| 1777766408 | 25.56° C | 42% | 1017.3 hPa | 0 mm | - | 357 W/m² | - |
| 1777766104 | 25.56° C | 42% | 1017.5 hPa | 0 mm | - | 361 W/m² | - |
| 1777765802 | 25° C | 42% | 1017.3 hPa | 0 mm | - | 365 W/m² | - |
| 1777765498 | 25° C | 43% | 1017.5 hPa | 0 mm | - | 370 W/m² | - |
| 1777765195 | 25.56° C | 41% | 1017.5 hPa | 0 mm | - | 135 W/m² | - |
| 1777764890 | 25.56° C | 42% | 1017.6 hPa | 0 mm | - | 251 W/m² | - |
| 1777764587 | 25.56° C | 42% | 1017.8 hPa | 0 mm | - | 380 W/m² | - |
| 1777764284 | 26.11° C | 42% | 1018 hPa | 0 mm | - | 389 W/m² | - |
| 1777763981 | 26.67° C | 43% | 1018 hPa | 0 mm | - | 395 W/m² | - |
| 1777763678 | 25.56° C | 44% | 1018 hPa | 0 mm | - | 396 W/m² | - |
| 1777763376 | 25.56° C | 45% | 1018 hPa | 0 mm | - | 397 W/m² | - |
| 1777763074 | 25.56° C | 44% | 1018 hPa | 0 mm | - | 406 W/m² | - |
| 1777762772 | 26.11° C | 44% | 1018.2 hPa | 0 mm | - | 406 W/m² | - |
| 1777762467 | 26.11° C | 45% | 1018.4 hPa | 0 mm | - | 405 W/m² | - |
| 1777762164 | 25.56° C | 45% | 1018.2 hPa | 0 mm | - | 227 W/m² | - |
| 1777761860 | 25.56° C | 44% | 1018.3 hPa | 0 mm | - | 287 W/m² | - |
* Rain latest hour (hover to see other rain measurements)
** Current wind speed in m/s (hover to see current wind gust speed)